Regional Weather Roundup
Issued by NWS

Home | Current Version | Previous Version | Text Only | Print | Product List | Glossary On
Versions: 1 2 3 4 5 6 7 8 9 10 11 12 13 14 15 16 17 18 19 20 21 22 23 24 25 26 27 28 29 30 31 32 33 34 35 36 37 38 39 40 41 42 43 44 45 46 47 48 49 50
000
ASUS43 KMKX 140421
RWRWI

WISCONSIN REGIONAL WEATHER ROUNDUP
NATIONAL WEATHER SERVICE MILWAUKEE/SULLIVAN WI
1000 PM CST SAT FEB 13 2016

NOTE: "FAIR" INDICATES FEW OR NO CLOUDS BELOW 12,000 FEET WITH NO
SIGNIFICANT WEATHER AND/OR OBSTRUCTIONS TO VISIBILITY.

WIZ001-002-006>008-014>016-023>028-140500-
NORTHWEST WISCONSIN

CITY           SKY/WX    TMP DP  RH WIND       PRES   REMARKS
SUPERIOR ARPT  CLOUDY    -6 -11  79 S3        30.37F
ASHLAND        CLOUDY   -12 -18  74 CALM      30.38F
HAYWARD        CLOUDY   -12 -19  71 CALM      30.34F
SIREN          CLOUDY    -6 -15  66 CALM      30.36F
CUMBERLAND     CLOUDY    -4 -17  54 SE3       30.34S
RICE LAKE      CLOUDY    -4 -14  63 E3        30.37F
CHETEK         CLOUDY    -8 -14  73 MISG      30.37F
LADYSMITH      CLOUDY    -8 -15  71 CALM      30.38S
EAU CLAIRE     CLOUDY    -6 -12  75 CALM      30.39F
MENOMONIE      CLOUDY     0 -12  57 E6        30.39F WCI -12
NEW RICHMOND   CLOUDY     0 -12  56 SE3       30.35F
OSCEOLA        CLOUDY     3  -9  57 SE6       30.38F WCI  -8
$$

WIZ003>005-009-010-017-018-140500-
NORTH CENTRAL WISCONSIN

CITY           SKY/WX    TMP DP  RH WIND       PRES   REMARKS
MANITOWISH WTR CLOUDY   -16 -21  78 CALM      30.31F
ARBOR VITAE    CLOUDY    -9 -14  76 CALM      30.31F
WOODRUFF       CLOUDY    -9 -14  76 CALM      30.31F
RHINELANDER    CLOUDY   -10 -18  67 CALM      30.32F
EAGLE RIVER    CLOUDY   -12 -17  77 CALM      30.32F
LAND O LAKES   CLOUDY   -16 -22  77 CALM      30.32F
PHILLIPS       CLOUDY   -12 -18  75 CALM      30.32F
TOMAHAWK       CLOUDY   -13 -19  78 CALM      30.35F
MEDFORD        CLOUDY   -12 -17  79 CALM      30.33F
MERRILL        CLOUDY   -12 -17  76 CALM      30.37F
$$

WIZ029-030-035-036-043>047-140500-
CENTRAL WISCONSIN

CITY           SKY/WX    TMP DP  RH WIND       PRES   REMARKS
WAUSAU         CLOUDY    -4 -10  75 CALM      30.38F
MOSINEE        CLOUDY    -2 -11  65 CALM      30.39S
MARSHFIELD     CLOUDY    -2 -12  62 CALM      30.36F
STEVENS POINT  CLOUDY   -11 -17  75 CALM      30.40F
WAUPACA        CLOUDY    -5 -12  69 CALM      30.44F
WAUTOMA        PTCLDY    -9 -15  74 CALM      30.44F
WISC RAPIDS    CLOUDY    -4 -12  68 CALM      30.42F
CAMP DOUGLAS   CLOUDY    -5  -9  81 CALM      30.41F
$$

WIZ011>013-019>022-031-037>040-048>050-140500-
NORTHEAST WISCONSIN

CITY           SKY/WX    TMP DP  RH WIND       PRES   REMARKS
ANTIGO         CLOUDY    -9 -15  75 CALM      30.35F
SHAWANO        PTCLDY     1  -7  67 CALM      30.44F
OCONTO         CLOUDY    -4 -10  75 CALM      30.45F
STURGEON BAY   CLEAR      3  -8  60 SW5       30.45F WCI  -6
GREEN BAY      CLOUDY    -2 -11  65 S5        30.45F WCI -12
MANITOWOC      CLEAR      1  -7  68 CALM      30.47F
APPLETON       PTCLDY     1 -15  46 CALM      30.41F
CLINTONVILLE   CLOUDY    -2 -11  65 CALM      30.43F
OSHKOSH        CLOUDY    -3 -11  68 CALM      30.43F
$$

WIZ032>034-041-042-053>061-140500-
SOUTHWEST WISCONSIN

CITY           SKY/WX    TMP DP  RH WIND       PRES   REMARKS
LA CROSSE      CLOUDY     3  -9  57 SE7       30.42F WCI  -9
SPARTA         CLOUDY    -7 -12  76 CALM      30.42F
VIROQUA        CLOUDY     3 -11  53 SE7       30.36F WCI -10
BOSCOBEL       CLOUDY     1  -8  66 CALM      30.45F
PRAIRIE DU CHI CLOUDY     6  -7  54 CALM      30.44S
PLATTEVILLE    CLOUDY     7  -3  62 E7        30.41F WCI  -5
$$

WIZ056-057-062-063-064-067-068-140500-
SOUTH CENTRAL WISCONSIN

CITY           SKY/WX    TMP DP  RH WIND       PRES   REMARKS
REEDSBURG      CLOUDY    -2  -9  70 CALM      30.43S
BARABOO/DELLS  CLOUDY    -1 -10  68 CALM      30.42S
LONE ROCK      CLOUDY    -1  -9  68 E5        30.45F WCI -11
MINERAL POINT  CLOUDY     3  -8  60 CALM      30.39F
MADISON        MOCLDY     3  -5  69 CALM      30.44F
MIDDLETON      PTCLDY     2  -4  75 CALM      30.44S
WATERTOWN      CLOUDY     2  -3  79 CALM      30.45S
MONROE         CLOUDY     9   0  66 E3        30.41F
JANESVILLE     CLOUDY    10   1  67 SE3       30.45S
$$

WIZ051-052-058>065-066-070>072-140500-
SOUTHEAST WISCONSIN

CITY           SKY/WX    TMP DP  RH WIND       PRES   REMARKS
MILWAUKEE      PTCLDY     7  -5  57 W5        30.47F WCI  -2
WAUKESHA       CLOUDY     1  -6  71 CALM      30.46F
MILWAUKEE/TIMM PTCLDY     5  -6  61 CALM      30.48S
RACINE         PTCLDY     6  -7  54 W5        30.49F WCI  -3
BURLINGTON     CLOUDY     1  -3  82 CALM      30.47S
KENOSHA        PTCLDY     5  -4  66 CALM      30.47S
FOND DU LAC    CLOUDY    -3 -10  72 S5        30.45F WCI -13
SHEBOYGAN      CLEAR     -1  -7  75 SW3       30.46F
WEST BEND      CLOUDY     0  -6  78 CALM      30.45S
JUNEAU         CLOUDY     1  -7  71 SE5       30.45F WCI  -9
$$

LSZ147-162-140500-
LAKE SUPERIOR

STATION/POSITION TIME  TEMP    WIND        PRES    WAVE
                       AIR SEA DIR/SP/G            HT/PER
                 (UTC) (F)     (DEG/KT/KT) (MB)    (FT/S)
DEVILS ISLAND    0400    9     190/  7/  8 1030.8F
SAXON HARBOR     0300   -9                 1029.1F
$$

LMZ867-665-643>646-140500-
LAKE MICHIGAN

STATION/POSITION TIME  TEMP    WIND        PRES    WAVE
                       AIR SEA DIR/SP/G            HT/PER
                 (UTC) (F)     (DEG/KT/KT) (MB)    (FT/S)
CHAMBERS ISLAND  0300    5     180/  3/  5 1031.2S
SISTER BAY       0319    6        CALM       N/A
ALGOMA LAKESHORE 0311             CALM       N/A
KEWAUNEE LAKESHO 0400    4     300/  6/  7 1030.4F
SHEBOYGAN LAKESH 0400    6     240/  7/  8 1033.6F
PORT WASHINGTON  0340    5      CALM  /  4 1033.2F
MILWAUKEE LAKESH 0410   10     290/  4/  5   N/A
KENOSHA   LAKESH 0400    9     300/  4/  6 1031.8F
$$

TC  - TEMPERATURE IN CELSIUS
VSB - VISIBILITY IN STATUTE MILES
WCI - WIND CHILL INDEX
HX  - HEAT INDEX




USA.gov is the U.S. government's official web portal to all federal, state and local government web resources and services.